Location: L�gaud
(45.7115°N, 1.7775°E)
Time: 14:49:23
(UTC+00:00)

Okean-O - Pass Details

Date: 03 March 2021
Orbit: 639 x 640 km, 98.2° (Epoch: 16 April)

Event Time Altitude Azimuth Distance (km) Brightness Sun altitude
Rises 18:21:29 0° 158° (SSE) 2,933 5.8 -7.6°
Reaches altitude 10° 18:23:41 10° 156° (SSE) 2,028 5.0 -8.0°
Maximum altitude 18:28:04 68° 74° (ENE) 692 2.6 -8.7°
Drops below altitude 10° 18:32:30 10° 351° (N) 2,044 5.3 -9.5°
Sets 18:34:43 0° 349° (N) 2,958 6.2 -9.9°
